STARLINK-5160, 54080

Orbit data source: Space-Track

STARLINK-5160, 54080 is a payload satellite owned by SpaceX/Seattle (US) in LEO that was launched on Thu, 20 Oct 2022 UTC via an FALCON 9 launch vehicle from the Air Force Eastern Test Range (AFETR). Payload-class satellites include a variety of spacecraft equipped with specific instruments for various scientific and technological missions. These include communications satellites like Starlink; space stations such as the ISS; scientific satellites like the Hubble; Earth observation satellites from companies like Planet Labs, Umbra, and HawkEye 360; GPS; miniature CubeSats for education and research; and military/defense satellites.

Loading next visibility...
Identifier
54080, 2022-136AF
Orbit
LEO
Country
Flag of USUS
Related business
Manufacturer
SpaceX/Seattle
Mission
Operational Commercial Communications
Bus & Motor
STARLINK, Unknown motor
Mass
305 kg wet, ~290 kg dry
Launch date (UTC)
2022-10-20 (3 years ago)
Launch vehicle
FALCON 9
Launch site
Air Force Eastern Test Range (AFETR)
Object type
Payload
Rocket body
Debris
Shape & HBR
Box + 1 Pan, 4.4 m
Radar Cross Section
13.562 m², Large (>1 m²)

Expand to show TLE details & history
Last TLE update: 21 hours ago

TLE from 21 hours ago
0 STARLINK-5160
1 54080U 22136AF  25260.61653306  .00000783  00000-0  67258-4 0  9996
2 54080  53.2167  36.2404 0000993  69.0737 291.0361 15.08836383160784
Epoch: 2025-09-17T14:47Z
TLE epoch observation values (Epoch: 2025-09-17T14:47:48.456Z)
Latitude
-0.00005°
Longitude
177.49854°
Altitude
540.405 km
Speed
7.593 km/s
True Right ascension
02h 24m 57s
True Declination
0° 00' 00"
Sunlit
Object was in full shadow at epoch
Visualization orbit readout
Latitude
Unknown
Longitude
Unknown
Altitude
Unknown
Speed
Unknown
Apparent Right ascension
Unknown
Apparent Declination
Unknown
Sunlit
N/A
Visualization observer readout
Local Sidereal Time
05:02:37
Azimuth
Unknown
Elevation
Unknown
Doppler factor
Unknown
Orbital elements
Apogee altitude
540.686 km
Perigee altitude
539.313 km
Semi-major axis
6,918.136 km
Eccentricity
0.0001
Inclination
53.2167°
RAAN
36.2404°
Arg. of periapsis
69.0737°
True anomaly
291.02548°
Mean anomaly
291.0361°
Eccentric anomaly
291.03079°
Mean motion
3.77189 °/min
Orbital period
95.44 mins
BSTAR
0.000067258
Loading maneuver chart data...
Computing Atmospheric mass density...
Loading historical data...
Loading historical data...
Loading historical data...
Loading historical data...
Loading historical data...
Loading historical data...
Loading historical data...

Documentation

Showing up to 5 results
|